When you browse on this site, cookies collect data to enhance your experience and personalize the content and advertising you see.
Visit our Privacy Policy to learn more. By continuing to use the site, you agree to this use of cookies and data.
  • în România
  • Lista ţărilor
  • Pe 7 zile
  • Temperatura apei
  • Meteo pe hartă
  • Widget-uri
  • user-avatar
    Intrare

    Meteo pe oră la San Cristóbal

    Astăzi, 16 Decembrie, Luni

    Timp Temperatura Precipitaţii Vânt Presiune Umiditate
    00:00 +20°C° 0.2 mm 1 m/s 671 mmHg 91%
    01:00 +19°C° 0.2 mm 1 m/s 671 mmHg 90%
    02:00 +19°C° 0.1 mm 1 m/s 671 mmHg 90%
    03:00 +19°C° 0.1 mm 1 m/s 671 mmHg 91%
    04:00 +19°C° 0.1 mm 1 m/s 670 mmHg 91%
    05:00 +20°C° 0.1 mm 1 m/s 671 mmHg 89%
    06:00 +20°C° 0.1 mm 1 m/s 671 mmHg 87%
    07:00 +21°C° 0.1 mm 1 m/s 672 mmHg 85%
    08:00 +23°C° 0.1 mm 1 m/s 672 mmHg 79%
    09:00 +25°C° 0.1 mm 1 m/s 673 mmHg 74%
    10:00 +26°C° 0.1 mm 2 m/s 674 mmHg 68%
    11:00 +27°C° 0.3 mm 2 m/s 673 mmHg 68%
    12:00 +27°C° 0.3 mm 2 m/s 672 mmHg 67%
    13:00 +27°C° 0.3 mm 2 m/s 671 mmHg 67%
    14:00 +27°C° 0.4 mm 2 m/s 671 mmHg 69%
    15:00 +26°C° 0.4 mm 1 m/s 670 mmHg 71%
    16:00 +26°C° 0.4 mm 1 m/s 670 mmHg 73%
    17:00 +24°C° 0.3 mm 1 m/s 670 mmHg 81%
    18:00 +23°C° 0.3 mm 1 m/s 670 mmHg 88%
    19:00 +19°C° 0.3 mm 0 m/s 669 mmHg 96%
    20:00 +19°C° 0.1 mm 0 m/s 670 mmHg 95%
    21:00 +18°C° 0.1 mm 0 m/s 670 mmHg 94%
    22:00 +20°C° 0.1 mm 1 m/s 671 mmHg 93%
    23:00 +20°C° 0.1 mm 1 m/s 671 mmHg 93%

    Mâine, 17 Decembrie, Marţi

    Timp Temperatura Precipitaţii Vânt Presiune Umiditate
    00:00 +20°C° 0.1 mm 1 m/s 670 mmHg 92%
    01:00 +20°C° 0.1 mm 1 m/s 670 mmHg 92%
    02:00 +20°C° 0 mm 1 m/s 670 mmHg 92%
    03:00 +20°C° 0 mm 1 m/s 670 mmHg 92%
    04:00 +20°C° 0 mm 1 m/s 670 mmHg 91%
    05:00 +20°C° 0.1 mm 1 m/s 670 mmHg 90%
    06:00 +21°C° 0.1 mm 1 m/s 670 mmHg 89%
    07:00 +21°C° 0.1 mm 1 m/s 671 mmHg 88%
    08:00 +22°C° 0.2 mm 1 m/s 671 mmHg 84%
    09:00 +23°C° 0.2 mm 2 m/s 672 mmHg 80%
    10:00 +25°C° 0.2 mm 2 m/s 672 mmHg 76%
    11:00 +25°C° 0.3 mm 2 m/s 671 mmHg 74%
    12:00 +26°C° 0.3 mm 2 m/s 671 mmHg 72%
    13:00 +26°C° 0.3 mm 2 m/s 670 mmHg 71%
    14:00 +26°C° 0.2 mm 2 m/s 669 mmHg 71%
    15:00 +26°C° 0.2 mm 1 m/s 669 mmHg 72%
    16:00 +25°C° 0.2 mm 1 m/s 668 mmHg 73%
    17:00 +24°C° 0.2 mm 1 m/s 669 mmHg 80%
    18:00 +22°C° 0.2 mm 1 m/s 669 mmHg 88%
    19:00 +21°C° 0.2 mm 1 m/s 669 mmHg 95%
    20:00 +20°C° 0 mm 1 m/s 669 mmHg 94%
    21:00 +20°C° 0 mm 1 m/s 669 mmHg 93%
    22:00 +20°C° 0 mm 1 m/s 670 mmHg 92%
    23:00 +19°C° 0 mm 1 m/s 670 mmHg 92%

    Poimâine, 18 Decembrie, Miercuri

    Timp Temperatura Precipitaţii Vânt Presiune Umiditate
    00:00 +19°C° 0 mm 1 m/s 669 mmHg 91%
    01:00 +19°C° 0 mm 1 m/s 669 mmHg 91%
    02:00 +19°C° 0 mm 1 m/s 669 mmHg 91%
    03:00 +19°C° 0 mm 1 m/s 669 mmHg 90%
    04:00 +19°C° 0 mm 1 m/s 669 mmHg 90%
    05:00 +20°C° 0 mm 1 m/s 669 mmHg 89%
    06:00 +20°C° 0 mm 1 m/s 670 mmHg 87%
    07:00 +21°C° 0 mm 1 m/s 670 mmHg 85%
    08:00 +23°C° 0.1 mm 2 m/s 671 mmHg 79%
    09:00 +24°C° 0.1 mm 2 m/s 672 mmHg 72%
    10:00 +26°C° 0.1 mm 2 m/s 672 mmHg 65%
    11:00 +27°C° 0.1 mm 2 m/s 672 mmHg 63%
    12:00 +27°C° 0.1 mm 2 m/s 671 mmHg 61%
    13:00 +28°C° 0.1 mm 2 m/s 671 mmHg 58%
    14:00 +27°C° 0.1 mm 2 m/s 670 mmHg 61%
    15:00 +27°C° 0.1 mm 1 m/s 669 mmHg 65%
    16:00 +26°C° 0.1 mm 1 m/s 669 mmHg 68%
    17:00 +24°C° 0.2 mm 1 m/s 669 mmHg 77%
    18:00 +23°C° 0.2 mm 1 m/s 669 mmHg 86%
    19:00 +21°C° 0.2 mm 1 m/s 669 mmHg 95%
    20:00 +21°C° 0.1 mm 1 m/s 670 mmHg 94%
    21:00 +21°C° 0.1 mm 1 m/s 670 mmHg 94%
    22:00 +20°C° 0.1 mm 1 m/s 670 mmHg 94%
    23:00 +20°C° 0 mm 1 m/s 670 mmHg 94%

    19 Decembrie, Joi

    Timp Temperatura Precipitaţii Vânt Presiune Umiditate
    00:00 +20°C° 0 mm 1 m/s 670 mmHg 93%
    01:00 +20°C° 0 mm 1 m/s 669 mmHg 93%
    02:00 +20°C° 0.1 mm 1 m/s 669 mmHg 93%
    03:00 +20°C° 0.1 mm 1 m/s 669 mmHg 92%
    04:00 +20°C° 0.1 mm 1 m/s 669 mmHg 92%
    05:00 +20°C° 0.1 mm 1 m/s 670 mmHg 91%
    06:00 +20°C° 0.1 mm 1 m/s 670 mmHg 90%
    07:00 +21°C° 0.1 mm 1 m/s 671 mmHg 88%
    08:00 +22°C° 0.1 mm 1 m/s 672 mmHg 80%
    09:00 +24°C° 0.1 mm 1 m/s 672 mmHg 71%
    10:00 +26°C° 0.1 mm 2 m/s 673 mmHg 63%
    11:00 +27°C° 0.1 mm 2 m/s 672 mmHg 61%
    12:00 +27°C° 0.1 mm 2 m/s 672 mmHg 60%
    13:00 +28°C° 0.1 mm 2 m/s 671 mmHg 58%
    14:00 +27°C° 0.3 mm 2 m/s 671 mmHg 64%
    15:00 +26°C° 0.3 mm 1 m/s 670 mmHg 70%
    16:00 +25°C° 0.3 mm 1 m/s 669 mmHg 76%
    17:00 +24°C° 0.3 mm 1 m/s 670 mmHg 82%
    18:00 +22°C° 0.3 mm 1 m/s 670 mmHg 88%
    19:00 +20°C° 0.3 mm 1 m/s 670 mmHg 94%
    20:00 +20°C° 0.1 mm 1 m/s 670 mmHg 94%
    21:00 +20°C° 0.1 mm 1 m/s 671 mmHg 93%
    22:00 +19°C° 0.1 mm 1 m/s 671 mmHg 92%
    23:00 +19°C° 0 mm 1 m/s 671 mmHg 91%

    20 Decembrie, Vineri

    Timp Temperatura Precipitaţii Vânt Presiune Umiditate
    00:00 +19°C° 0 mm 1 m/s 671 mmHg 90%
    01:00 +19°C° 0 mm 1 m/s 670 mmHg 89%
    02:00 +19°C° 0 mm 1 m/s 670 mmHg 88%
    03:00 +18°C° 0 mm 1 m/s 670 mmHg 88%
    04:00 +18°C° 0 mm 1 m/s 670 mmHg 87%
    05:00 +19°C° 0 mm 1 m/s 670 mmHg 84%
    06:00 +20°C° 0 mm 1 m/s 671 mmHg 81%
    07:00 +20°C° 0 mm 1 m/s 671 mmHg 79%
    08:00 +22°C° 0 mm 1 m/s 672 mmHg 72%
    09:00 +24°C° 0 mm 2 m/s 673 mmHg 65%
    10:00 +26°C° 0 mm 2 m/s 673 mmHg 58%
    11:00 +27°C° 0.1 mm 2 m/s 673 mmHg 57%
    12:00 +28°C° 0.1 mm 2 m/s 672 mmHg 55%
    13:00 +28°C° 0.1 mm 2 m/s 671 mmHg 54%
    14:00 +28°C° 0 mm 2 m/s 671 mmHg 56%
    15:00 +27°C° 0 mm 2 m/s 670 mmHg 59%
    16:00 +27°C° 0 mm 1 m/s 670 mmHg 61%
    17:00 +25°C° 0 mm 1 m/s 670 mmHg 70%
    18:00 +23°C° 0 mm 1 m/s 670 mmHg 79%
    19:00 +21°C° 0 mm 1 m/s 670 mmHg 89%
    20:00 +20°C° 0 mm 1 m/s 670 mmHg 88%
    21:00 +20°C° 0 mm 1 m/s 671 mmHg 87%
    22:00 +20°C° 0 mm 1 m/s 671 mmHg 86%
    23:00 +20°C° 0 mm 1 m/s 671 mmHg 86%

    21 Decembrie, Sâmbătă

    Timp Temperatura Precipitaţii Vânt Presiune Umiditate
    00:00 +20°C° 0 mm 1 m/s 671 mmHg 86%
    01:00 +19°C° 0 mm 1 m/s 670 mmHg 86%
    02:00 +19°C° 0 mm 1 m/s 670 mmHg 86%
    03:00 +20°C° 0 mm 1 m/s 670 mmHg 85%
    04:00 +20°C° 0 mm 1 m/s 670 mmHg 85%
    05:00 +20°C° 0 mm 1 m/s 671 mmHg 83%
    06:00 +21°C° 0 mm 1 m/s 671 mmHg 81%
    07:00 +22°C° 0 mm 1 m/s 672 mmHg 78%
    08:00 +23°C° 0.1 mm 1 m/s 672 mmHg 75%
    09:00 +24°C° 0.1 mm 1 m/s 673 mmHg 72%
    10:00 +25°C° 0.1 mm 2 m/s 673 mmHg 69%
    11:00 +26°C° 0.2 mm 2 m/s 672 mmHg 69%
    12:00 +26°C° 0.2 mm 2 m/s 672 mmHg 69%
    13:00 +26°C° 0.2 mm 2 m/s 671 mmHg 68%
    14:00 +26°C° 0.2 mm 2 m/s 670 mmHg 68%
    15:00 +26°C° 0.2 mm 1 m/s 670 mmHg 68%
    16:00 +26°C° 0.2 mm 1 m/s 669 mmHg 68%
    17:00 +24°C° 0.3 mm 1 m/s 669 mmHg 77%
    18:00 +23°C° 0.3 mm 1 m/s 669 mmHg 85%
    19:00 +21°C° 0.3 mm 1 m/s 670 mmHg 93%
    20:00 +21°C° 0.1 mm 1 m/s 670 mmHg 93%
    21:00 +21°C° 0.1 mm 1 m/s 671 mmHg 93%
    22:00 +20°C° 0.1 mm 1 m/s 671 mmHg 94%
    23:00 +20°C° 0.1 mm 1 m/s 671 mmHg 93%
    Arată mai mult